Location: Casilda
(33.0440°S, 61.1680°W)
Time: 11:43:32
(UTC-03:00)

ISS - Pass Details

Date: 17 October 2019
Orbit: 411 x 421 km, 51.6° (Epoch: 18 October)

Event Time Altitude Azimuth Distance (km) Brightness Sun altitude
Exits shadow 05:23:50 11° 240° (WSW) 1,488 -1.3 -12.5°
Maximum altitude 05:27:01 43° 312° (NW) 610 -3.4 -11.9°
Drops below altitude 10° 05:30:15 10° 24° (NNE) 1,505 -0.9 -11.3°
Sets 05:32:23 0° 31° (NNE) 2,362 0.2 -10.8°
